Location: Unspecified
(35.6961°N, 0.0000°E)
Time: 09:09:19
(UTC+00:00)

Vanguard 2 Rocket - Pass Details

Date: 27 May 2019
Orbit: 554 x 3326 km, 32.9° (Epoch: 19 June)

Event Time Altitude Azimuth Distance (km) Brightness Sun altitude
Rises 01:05:48 0° 194° (SSW) 6,770 - -30.8°
Reaches altitude 10° 01:11:46 10° 181° (S) 6,042 - -30.4°
Exits shadow 01:19:32 20° 158° (SSE) 5,393 10.4 -29.8°
Maximum altitude 01:25:17 23° 137° (SE) 5,215 10.5 -29.4°
Drops below altitude 10° 01:38:22 10° 94° (E) 5,926 11.3 -28.2°
Sets 01:43:57 0° 82° (E) 6,627 11.8 -27.7°
